Auburn, IN

8:14 AM EDT on June 24, 2019 (GMT -0400)
Auburn

Weather History for KGWB - May, 2019

Change the Weather History Date:

Wednesday, May 22, 2019

  Actual Average (KFWA) Record (KFWA)
Temperature  
Mean Temperature 62 °F -  
Max Temperature 75 °F 73 °F 92 °F (1902)
Min Temperature 50 °F 51 °F 35 °F (1924)
Degree Days  
Heating Degree Days 2    
Growing Degree Days 12 (Base 50)    
Moisture  
Dew Point 53 °F    
Average Humidity 79    
Maximum Humidity 100    
Minimum Humidity 61    
Precipitation  
Precipitation 0.57 in - - ()
Sea Level Pressure  
Sea Level Pressure 30.00 in    
Wind  
Wind Speed 8 mph (SE)    
Max Wind Speed 13 mph    
Max Gust Speed 21 mph    
Visibility 9 miles    
Events Rain    
Averages and records for this station are not official NWS values.
T = Trace of Precipitation, MM = Missing Value Source: NWS Daily Summary

Daily Weather History Graph

Daily Weather History Graph

Search for Another Location

Airport or City:

Astronomy

May. 22, 2019 Rise Set
Actual Time 6:15 AM EDT 8:58 PM EDT
Civil Twilight 5:43 AM EDT 9:30 PM EDT
Nautical Twilight 5:03 AM EDT 10:11 PM EDT
Astronomical Twilight 4:17 AM EDT 10:57 PM EDT
Moon No Moon Rise 9:22 AM EDT (5/22)
Length of Visible Light 15h 47m
Length of Day
14h 42m
Waning Gibbous, 85% of the Moon is Illuminated
May 22
Waning Gibbous
May 26
Last Quarter
Jun 3
New
Jun 10
First Quarter
Jun 17
Full

Hourly Weather History & Observations

Time (EDT) Temp. Dew Point Humidity Pressure Visibility Wind Dir Wind Speed Gust Speed Precip Events Conditions
12:15 AM 51.8 °F 41.0 °F 67% 30.05 in 10.0 mi East 12.7 mph 18.4 mph N/A   Scattered Clouds
12:35 AM 51.8 °F 41.0 °F 67% 30.05 in 10.0 mi East 10.4 mph 20.7 mph N/A   Clear
12:55 AM 53.6 °F 42.8 °F 67% 30.04 in 10.0 mi East 10.4 mph 19.6 mph N/A   Mostly Cloudy
1:15 AM 51.8 °F 42.8 °F 71% 30.04 in 10.0 mi East 11.5 mph 17.3 mph N/A   Overcast
1:35 AM 51.8 °F 42.8 °F 71% 30.03 in 10.0 mi East 11.5 mph 16.1 mph N/A   Scattered Clouds
1:55 AM 51.8 °F 42.8 °F 71% 30.03 in 10.0 mi East 11.5 mph 20.7 mph N/A   Clear
2:15 AM 51.8 °F 42.8 °F 71% 30.03 in 10.0 mi East 11.5 mph 19.6 mph N/A   Clear
2:35 AM 51.8 °F 42.8 °F 71% 30.03 in 10.0 mi East 11.5 mph 18.4 mph N/A   Clear
2:55 AM 51.8 °F 42.8 °F 71% 30.03 in 10.0 mi East 10.4 mph - N/A   Clear
3:15 AM 51.8 °F 42.8 °F 71% 30.01 in 10.0 mi East 11.5 mph 18.4 mph N/A   Clear
3:35 AM 51.8 °F 42.8 °F 71% 30.02 in 10.0 mi East 9.2 mph 16.1 mph N/A   Clear
3:55 AM 51.8 °F 42.8 °F 71% 30.01 in 10.0 mi East 11.5 mph 16.1 mph N/A   Clear
4:15 AM 51.8 °F 44.6 °F 76% 30.01 in 10.0 mi East 10.4 mph - N/A   Clear
4:35 AM 51.8 °F 42.8 °F 71% 29.98 in 10.0 mi East 12.7 mph 17.3 mph N/A   Scattered Clouds
4:55 AM 51.8 °F 42.8 °F 71% 29.98 in 10.0 mi East 10.4 mph 17.3 mph N/A   Scattered Clouds
5:15 AM 51.8 °F 42.8 °F 71% 29.97 in 10.0 mi East 11.5 mph 18.4 mph N/A   Scattered Clouds
5:35 AM 53.6 °F 42.8 °F 67% 29.98 in 10.0 mi East 11.5 mph 17.3 mph N/A   Mostly Cloudy
5:55 AM 51.8 °F 44.6 °F 76% 30.00 in 10.0 mi SE 4.6 mph - N/A Rain Rain
6:15 AM 50.0 °F 46.4 °F 87% 29.99 in 7.0 mi East 6.9 mph - 0.04 in Rain Light Rain
6:35 AM 50.0 °F 46.4 °F 87% 30.00 in 1.5 mi East 4.6 mph - 0.17 in Rain Heavy Rain
6:55 AM 50.0 °F 46.4 °F 87% 29.99 in 2.5 mi East 6.9 mph - 0.27 in Rain Heavy Rain
7:15 AM 50.0 °F 46.4 °F 87% 29.99 in 10.0 mi East 8.1 mph - 0.02 in Rain Rain
7:35 AM 50.0 °F 46.4 °F 87% 30.00 in 10.0 mi ESE 3.5 mph - 0.02 in Rain Rain
7:55 AM 50.0 °F 48.2 °F 94% 30.00 in 10.0 mi Calm Calm - 0.03 in Rain Light Rain
8:17 AM 50.0 °F 48.2 °F 94% 30.01 in 7.0 mi East 3.5 mph - N/A Rain Rain
8:35 AM 50.0 °F 50.0 °F 100% 30.00 in 7.0 mi East 6.9 mph - 0.02 in Rain Rain
8:55 AM 50.0 °F 48.2 °F 94% 30.05 in 5.0 mi Calm Calm - 0.06 in Rain Rain
9:15 AM 50.0 °F 50.0 °F 100% 30.00 in 3.0 mi East 8.1 mph - 0.14 in Rain Rain
9:35 AM 50.0 °F 50.0 °F 100% 30.00 in 5.0 mi East 9.2 mph - 0.18 in Rain Light Rain
9:55 AM 50.0 °F 50.0 °F 100% 30.00 in 10.0 mi East 4.6 mph - 0.19 in Rain Light Rain
10:15 AM 50.0 °F 50.0 °F 100% 30.01 in 7.0 mi East 5.8 mph - 0.02 in Rain Light Rain
11:00 AM 53.6 °F 51.8 °F 94% 29.99 in 10.0 mi East 6.9 mph - N/A   Mostly Cloudy
11:15 AM 53.6 °F 51.8 °F 94% 29.98 in 10.0 mi East 6.9 mph - N/A   Scattered Clouds
11:35 AM 53.6 °F 51.8 °F 94% 30.00 in 10.0 mi ESE 3.5 mph - N/A   Scattered Clouds
11:55 AM 53.6 °F 51.8 °F 94% 30.00 in 10.0 mi ESE 4.6 mph - N/A   Overcast
12:15 PM 55.4 °F 53.6 °F 94% 30.00 in 10.0 mi SE 5.8 mph - N/A   Overcast
12:35 PM 55.4 °F 53.6 °F 94% 30.01 in 10.0 mi SE 4.6 mph - N/A   Overcast
12:55 PM 60.8 °F 55.4 °F 82% 30.01 in 10.0 mi Calm Calm - N/A   Mostly Cloudy
1:15 PM 60.8 °F 55.4 °F 82% 30.02 in 10.0 mi South 5.8 mph - N/A   Mostly Cloudy
1:35 PM 62.6 °F 59.0 °F 88% 30.00 in 10.0 mi SSW 8.1 mph - N/A   Scattered Clouds
1:55 PM 64.4 °F 59.0 °F 83% 30.00 in 10.0 mi SSW 4.6 mph - N/A   Clear
2:15 PM 66.2 °F 60.8 °F 83% 30.00 in 10.0 mi SSE 4.6 mph - N/A   Scattered Clouds
2:35 PM 68.0 °F 60.8 °F 78% 29.99 in 10.0 mi South 4.6 mph - N/A   Scattered Clouds
2:55 PM 69.8 °F 60.8 °F 73% 29.98 in 10.0 mi SSW 8.1 mph - N/A   Clear
3:15 PM 69.8 °F 60.8 °F 73% 29.97 in 10.0 mi South 4.6 mph - N/A   Clear
3:35 PM 71.6 °F 60.8 °F 69% 29.97 in 10.0 mi SW 6.9 mph - N/A   Clear
3:55 PM 71.6 °F 60.8 °F 69% 29.98 in 10.0 mi South 6.9 mph - N/A   Clear
4:15 PM 73.4 °F 60.8 °F 65% 29.98 in 10.0 mi SSW 6.9 mph - N/A   Clear
4:35 PM 73.4 °F 62.6 °F 69% 29.98 in 10.0 mi South 5.8 mph - N/A   Clear
4:55 PM 75.2 °F 60.8 °F 61% 29.98 in 10.0 mi SSW 6.9 mph - N/A   Clear
5:15 PM 73.4 °F 60.8 °F 65% 29.99 in 10.0 mi SSW 6.9 mph - N/A   Clear
5:35 PM 75.2 °F 62.6 °F 65% 29.99 in 10.0 mi SW 8.1 mph - N/A   Scattered Clouds
5:55 PM 75.2 °F 60.8 °F 61% 29.99 in 10.0 mi South 6.9 mph - N/A   Clear
6:15 PM 75.2 °F 60.8 °F 61% 29.99 in 10.0 mi SSW 6.9 mph - N/A   Clear
6:35 PM 75.2 °F 60.8 °F 61% 29.99 in 10.0 mi SSW 5.8 mph - N/A   Clear
6:55 PM 75.2 °F 60.8 °F 61% 29.98 in 10.0 mi SSW 4.6 mph - N/A   Clear
7:15 PM 73.4 °F 60.8 °F 65% 29.99 in 10.0 mi SSW 4.6 mph - N/A   Clear
7:35 PM 73.4 °F 60.8 °F 65% 29.99 in 10.0 mi SSW 4.6 mph - N/A   Clear
7:55 PM 73.4 °F 60.8 °F 65% 30.00 in 10.0 mi SSW 3.5 mph - N/A   Clear
8:15 PM 71.6 °F 60.8 °F 69% 30.00 in 10.0 mi Calm Calm - N/A   Clear
8:35 PM 69.8 °F 60.8 °F 73% 30.00 in 10.0 mi Calm Calm - N/A   Clear
8:55 PM 66.2 °F 60.8 °F 83% 30.00 in 10.0 mi Calm Calm - N/A   Clear
9:15 PM 64.4 °F 60.8 °F 88% 30.00 in 10.0 mi Calm Calm - N/A   Clear
9:35 PM 62.6 °F 60.8 °F 94% 30.00 in 10.0 mi Calm Calm - N/A   Clear
10:00 PM 62.6 °F 59.0 °F 88% 30.00 in 10.0 mi Calm Calm - N/A   Clear
10:15 PM 62.6 °F 59.0 °F 88% 30.00 in 10.0 mi Calm Calm - N/A   Clear
10:35 PM 64.4 °F 60.8 °F 88% 30.00 in 10.0 mi Calm Calm - N/A   Clear
10:55 PM 62.6 °F 60.8 °F 94% 30.00 in 10.0 mi Calm Calm - N/A   Clear
11:15 PM 62.6 °F 60.8 °F 94% 30.00 in 10.0 mi Calm Calm - N/A   Clear
11:35 PM 62.6 °F 60.8 °F 94% 30.00 in 10.0 mi Calm Calm - N/A   Clear
11:55 PM 62.6 °F 60.8 °F 94% 30.00 in 10.0 mi Calm Calm - N/A   Clear